VA7ASI-WX Weather Reports


Display with metric or nautical units.
time (UTC)temp
F
wind
direction
speed
MPH
gust
MPH
rain 1hr
in
rain 24hr
in
rain mn
in
humidity
%
barometer
mb
20260504185618 74 29 3.0 3.0 0.00 0.00 0.00 99 1008.4
20260504185418 74 24 2.0 3.0 0.00 0.00 0.00 99 1008.4
20260504185218 74 27 3.0 3.0 0.00 0.00 0.00 99 1008.4
20260504185018 74 5 2.0 3.0 0.00 0.00 0.00 99 1008.5
20260504184748 74 5 3.0 3.0 0.00 0.00 0.00 99 1008.5
20260504184518 74 13 1.0 3.0 0.00 0.00 0.00 99 1008.5
20260504184248 75 7 3.0 5.0 0.00 0.00 0.00 99 1008.5
20260504184048 75 0 1.0 3.0 0.00 0.00 0.00 99 1008.5
20260504183848 75 0 2.0 2.0 0.00 0.00 0.00 99 1008.5
20260504183648 75 4 0.0 2.0 0.00 0.00 0.00 99 1008.6
20260504183418 75 5 1.0 3.0 0.00 0.00 0.00 99 1008.6
20260504183218 74 1 0.0 2.0 0.00 0.00 0.00 99 1008.6
20260504183018 74 0 1.0 2.0 0.00 0.00 0.00 99 1008.6
20260504182818 74 0 1.0 2.0 0.00 0.00 0.00 99 1008.6
20260504182548 73 0 1.0 2.0 0.00 0.00 0.00 99 1008.6
20260504182318 73 0 2.0 3.0 0.00 0.00 0.00 99 1008.6
20260504182118 73 17 2.0 2.0 0.00 0.00 0.00 99 1008.7
20260504181918 73 19 1.0 2.0 0.00 0.00 0.00 99 1008.7
20260504181718 73 16 1.0 3.0 0.00 0.00 0.00 99 1008.6
20260504181518 73 31 3.0 3.0 0.00 0.00 0.00 99 1008.6
20260504181248 73 358 3.0 5.0 0.00 0.00 0.00 99 1008.7
20260504181018 73 25 3.0 3.0 0.00 0.00 0.00 99 1008.6
20260504180748 73 17 2.0 3.0 0.00 0.00 0.00 99 1008.6
20260504180518 73 12 2.0 3.0 0.00 0.00 0.00 99 1008.6
20260504180248 73 5 2.0 3.0 0.00 0.00 0.00 99 1008.6
20260504180018 73 0 2.0 3.0 0.00 0.00 0.00 99 1008.6
20260504175748 73 16 3.0 3.0 0.00 0.00 0.00 99 1008.6
20260504175548 73 11 3.0 3.0 0.00 0.00 0.00 99 1008.6
20260504175348 74 6 3.0 5.0 0.00 0.00 0.00 99 1008.6
20260504175118 74 358 5.0 6.0 0.00 0.00 0.00 99 1008.5
20260504174848 75 23 1.0 3.0 0.00 0.00 0.00 99 1008.5
20260504174648 75 21 2.0 3.0 0.00 0.00 0.00 99 1008.4
20260504174448 76 352 1.0 5.0 0.00 0.00 0.00 99 1008.4
20260504174218 75 333 0.0 2.0 0.00 0.00 0.00 99 1008.4
20260504174018 75 335 2.0 2.0 0.00 0.00 0.00 99 1008.4
20260504173818 75 0 0.0 2.0 0.00 0.00 0.00 99 1008.5
20260504173618 74 0 0.0 1.0 0.00 0.00 0.00 99 1008.5
20260504173348 74 330 0.0 0.0 0.00 0.00 0.00 99 1008.4
20260504173148 73 286 0.0 0.0 0.00 0.00 0.00 99 1008.4
20260504172918 73 279 0.0 0.0 0.00 0.00 0.00 99 1008.4
20260504172648 73 358 0.0 2.0 0.00 0.00 0.00 99 1008.5
20260504172418 73 5 0.0 2.0 0.00 0.00 0.00 99 1008.5
20260504172218 72 8 0.0 0.0 0.00 0.00 0.00 99 1008.5
20260504171948 72 5 0.0 1.0 0.00 0.00 0.00 99 1008.6
20260504171718 71 5 0.0 1.0 0.00 0.00 0.00 99 1008.6
20260504171448 71 5 0.0 2.0 0.00 0.00 0.00 99 1008.6
20260504171248 71 5 1.0 1.0 0.00 0.00 0.00 99 1008.6
20260504171018 71 5 2.0 3.0 0.00 0.00 0.00 99 1008.6
20260504170748 71 5 1.0 1.0 0.00 0.00 0.00 99 1008.6
20260504170548 71 5 1.0 2.0 0.00 0.00 0.00 99 1008.7
20260504170348 71 5 1.0 3.0 0.00 0.00 0.00 99 1008.7
20260504170148 71 9 2.0 3.0 0.00 0.00 0.00 99 1008.6
20260504160218 69 24 2.0 3.0 0.00 0.00 0.00 99 1008.8
20260504151017 68 254 0.0 2.0 0.00 0.00 0.00 99 1008.8
20260504150817 68 248 0.0 0.0 0.00 0.00 0.00 99 1008.8
20260504150617 68 248 0.0 0.0 0.00 0.00 0.00 99 1008.8
20260504150417 68 248 0.0 0.0 0.00 0.00 0.00 99 1008.8
20260504150147 67 248 0.0 0.0 0.00 0.00 0.00 99 1008.8
20260504141317 61 244 0.0 0.0 0.00 0.00 0.00 99 1008.4
20260504141047 60 244 0.0 0.0 0.00 0.00 0.00 99 1008.4
20260504140847 60 244 0.0 0.0 0.00 0.00 0.00 99 1008.3
20260504140647 60 244 0.0 0.0 0.00 0.00 0.00 99 1008.3
20260504140417 59 244 0.0 0.0 0.00 0.00 0.00 99 1008.3
20260504140147 59 244 0.0 0.0 0.00 0.00 0.00 99 1008.2
20260504130647 57 244 0.0 0.0 0.00 0.00 0.00 99 1008.0
20260504130417 57 244 0.0 0.0 0.00 0.00 0.00 99 1007.9
20260504130217 57 244 0.0 0.0 0.00 0.00 0.00 99 1007.9
20260504120247 57 244 0.0 0.0 0.00 0.00 0.00 99 1008.0
20260504110617 58 244 0.0 0.0 0.00 0.00 0.00 99 1007.8
20260504110417 58 244 0.0 0.0 0.00 0.00 0.00 99 1007.7
20260504110217 58 244 0.0 0.0 0.00 0.00 0.00 99 1007.7
20260504100517 58 244 0.0 0.0 0.00 0.00 0.00 99 1007.7
20260504100317 58 244 0.0 0.0 0.00 0.00 0.00 99 1007.7
20260504081817 61 302 0.0 0.0 0.00 0.00 0.00 99 1007.4
20260504081617 61 302 0.0 0.0 0.00 0.00 0.00 99 1007.4
20260504081347 61 302 0.0 0.0 0.00 0.00 0.00 99 1007.4
20260504081147 61 302 0.0 0.0 0.00 0.00 0.00 99 1007.4
20260504080947 61 302 0.0 0.0 0.00 0.00 0.00 99 1007.4
20260504080717 61 302 0.0 0.0 0.00 0.00 0.00 99 1007.4
20260504080517 61 302 0.0 0.0 0.00 0.00 0.00 99 1007.4
20260504080247 61 302 0.0 0.0 0.00 0.00 0.00 99 1007.4
20260504070247 63 304 0.0 0.0 0.00 0.00 0.00 99 1007.2
20260504060147 67 304 0.0 0.0 0.00 0.00 0.00 99 1007.1
20260504050646 70 304 0.0 0.0 0.00 0.00 0.00 99 1007.4
20260504050416 71 304 0.0 0.0 0.00 0.00 0.00 99 1007.4
20260504050216 71 304 0.0 0.0 0.00 0.00 0.00 99 1007.4
20260504050016 71 304 0.0 0.0 0.00 0.00 0.00 99 1007.3
20260504045816 71 304 0.0 0.0 0.00 0.00 0.00 99 1007.4
20260504045616 71 304 0.0 0.0 0.00 0.00 0.00 99 1007.3
20260504045416 71 304 0.0 0.0 0.00 0.00 0.00 99 1007.4
20260504045216 71 304 0.0 0.0 0.00 0.00 0.00 99 1007.3
20260504045016 71 304 0.0 0.0 0.00 0.00 0.00 99 1007.3
20260504044816 71 304 0.0 0.0 0.00 0.00 0.00 99 1007.3
20260504044546 71 304 0.0 0.0 0.00 0.00 0.00 99 1007.3
20260504044316 71 304 0.0 0.0 0.00 0.00 0.00 99 1007.3
20260504044116 71 304 0.0 0.0 0.00 0.00 0.00 99 1007.3
20260504043846 72 304 0.0 0.0 0.00 0.00 0.00 99 1007.3
20260504043646 72 304 0.0 0.0 0.00 0.00 0.00 99 1007.3
20260504043446 72 304 0.0 0.0 0.00 0.00 0.00 99 1007.3
20260504043246 72 304 0.0 0.0 0.00 0.00 0.00 99 1007.3
20260504043046 72 304 0.0 0.0 0.00 0.00 0.00 99 1007.4
20260504042816 72 304 0.0 0.0 0.00 0.00 0.00 99 1007.4
20260504042546 73 304 0.0 0.0 0.00 0.00 0.00 99 1007.4
20260504042316 73 304 0.0 0.0 0.00 0.00 0.00 99 1007.3
20260504042116 73 304 0.0 0.0 0.00 0.00 0.00 99 1007.4
20260504041916 73 304 0.0 0.0 0.00 0.00 0.00 99 1007.4
20260504041646 74 304 0.0 0.0 0.00 0.00 0.00 99 1007.3
20260504041416 74 304 0.0 0.0 0.00 0.00 0.00 99 1007.3
20260504041216 74 304 0.0 1.0 0.00 0.00 0.00 99 1007.3
20260504040946 74 304 0.0 0.0 0.00 0.00 0.00 99 1007.3
20260504040716 74 302 1.0 1.0 0.00 0.00 0.00 99 1007.3
20260504040516 75 304 0.0 0.0 0.00 0.00 0.00 99 1007.3
20260504040316 75 321 0.0 0.0 0.00 0.00 0.00 99 1007.3
20260504040046 75 321 0.0 0.0 0.00 0.00 0.00 99 1007.3
20260504035816 75 324 1.0 2.0 0.00 0.00 0.00 99 1007.3
20260504035546 75 337 2.0 3.0 0.00 0.00 0.00 99 1007.3
20260504035316 74 261 0.0 1.0 0.00 0.00 0.00 99 1007.2
20260504035116 74 261 0.0 0.0 0.00 0.00 0.00 99 1007.2
20260504034916 74 289 0.0 3.0 0.00 0.00 0.00 99 1007.3
20260504034646 74 304 0.0 0.0 0.00 0.00 0.00 99 1007.2
20260504034446 75 304 0.0 0.0 0.00 0.00 0.00 99 1007.3
20260504034246 75 304 0.0 0.0 0.00 0.00 0.00 99 1007.2
20260504034046 75 304 0.0 0.0 0.00 0.00 0.00 99 1007.3
20260504033846 75 304 0.0 0.0 0.00 0.00 0.00 99 1007.3
20260504033616 75 304 0.0 0.0 0.00 0.00 0.00 99 1007.3
20260504033416 75 304 0.0 0.0 0.00 0.00 0.00 99 1007.3
20260504033216 75 327 1.0 3.0 0.00 0.00 0.00 99 1007.3
20260504032946 75 241 0.0 0.0 0.00 0.00 0.00 99 1007.3
20260504032716 76 309 0.0 0.0 0.00 0.00 0.00 99 1007.3
20260504032446 76 308 0.0 0.0 0.00 0.00 0.00 99 1007.3
20260504032216 76 334 0.0 0.0 0.00 0.00 0.00 99 1007.3
20260504031946 76 359 0.0 2.0 0.00 0.00 0.00 99 1007.3
20260504031746 76 339 0.0 1.0 0.00 0.00 0.00 99 1007.3
20260504031546 76 339 0.0 0.0 0.00 0.00 0.00 99 1007.3
20260504031346 76 342 0.0 0.0 0.00 0.00 0.00 99 1007.3
20260504031146 76 344 0.0 0.0 0.00 0.00 0.00 99 1007.3
20260504030946 76 343 0.0 0.0 0.00 0.00 0.00 99 1007.3
20260504030716 76 343 0.0 0.0 0.00 0.00 0.00 99 1007.3
20260504030516 77 343 0.0 0.0 0.00 0.00 0.00 99 1007.3
20260504030316 77 344 0.0 0.0 0.00 0.00 0.00 99 1007.3
20260504030116 77 344 0.0 0.0 0.00 0.00 0.00 99 1007.3
20260504025916 77 344 0.0 2.0 0.00 0.00 0.00 99 1007.3
20260504025716 77 328 0.0 1.0 0.00 0.00 0.00 99 1007.3
20260504025446 77 329 0.0 0.0 0.00 0.00 0.00 99 1007.4
20260504025246 77 329 0.0 0.0 0.00 0.00 0.00 99 1007.4
20260504025016 77 329 1.0 0.0 0.00 0.00 0.00 99 1007.4
20260504024816 78 331 0.0 3.0 0.00 0.00 0.00 99 1007.4
20260504024616 78 331 0.0 0.0 0.00 0.00 0.00 99 1007.4
20260504024416 78 313 0.0 1.0 0.00 0.00 0.00 99 1007.4
20260504024216 78 309 1.0 3.0 0.00 0.00 0.00 99 1007.4
20260504023946 78 304 0.0 2.0 0.00 0.00 0.00 99 1007.4
20260504023746 78 304 1.0 3.0 0.00 0.00 0.00 99 1007.4
20260504023516 78 302 2.0 3.0 0.00 0.00 0.00 99 1007.4
20260504023316 79 351 0.0 3.0 0.00 0.00 0.00 99 1007.4
20260504023116 79 349 0.0 1.0 0.00 0.00 0.00 99 1007.4
20260504022916 79 348 1.0 2.0 0.00 0.00 0.00 99 1007.4
20260504022646 80 311 1.0 3.0 0.00 0.00 0.00 99 1007.5
20260504022446 80 337 2.0 5.0 0.00 0.00 0.00 99 1007.5
20260504022246 80 336 0.0 0.0 0.00 0.00 0.00 99 1007.5
20260504022016 80 336 0.0 0.0 0.00 0.00 0.00 99 1007.5
20260504021816 80 336 0.0 0.0 0.00 0.00 0.00 99 1007.5
20260504021546 80 252 1.0 6.0 0.00 0.00 0.00 99 1007.5
20260504021316 80 273 2.0 8.0 0.00 0.00 0.00 99 1007.5
20260504021116 80 39 1.0 2.0 0.00 0.00 0.00 99 1007.6
20260504020916 80 137 1.0 3.0 0.00 0.00 0.00 99 1007.6
20260504020646 80 238 1.0 6.0 0.00 0.00 0.00 99 1007.6
20260504020446 80 335 1.0 2.0 0.00 0.00 0.00 99 1007.6
20260504020246 80 333 0.0 1.0 0.00 0.00 0.00 99 1007.7
20260504020046 80 270 2.0 7.0 0.00 0.00 0.00 99 1007.7
20260504015816 80 266 1.0 5.0 0.00 0.00 0.00 99 1007.7
20260504015546 80 330 0.0 3.0 0.00 0.00 0.00 99 1007.7
20260504015316 80 342 1.0 2.0 0.00 0.00 0.00 99 1007.7
20260504015046 80 327 3.0 8.0 0.00 0.00 0.00 99 1007.7
20260504014846 80 334 1.0 3.0 0.00 0.00 0.00 99 1007.7
20260504014616 80 330 2.0 6.0 0.00 0.00 0.00 99 1007.7
20260504014416 80 5 0.0 0.0 0.00 0.00 0.00 99 1007.8
20260504014146 79 5 2.0 3.0 0.00 0.00 0.00 99 1007.9
20260504013916 80 351 3.0 5.0 0.00 0.00 0.00 99 1007.9
20260504013646 80 4 2.0 3.0 0.00 0.00 0.00 99 1007.9
20260504013446 81 12 3.0 5.0 0.00 0.00 0.00 99 1007.9
20260504013216 81 24 1.0 2.0 0.00 0.00 0.00 99 1007.9
20260504013016 81 5 1.0 5.0 0.00 0.00 0.00 99 1007.9
20260504012746 81 340 2.0 3.0 0.00 0.00 0.00 99 1007.9
20260504012516 81 4 2.0 3.0 0.00 0.00 0.00 99 1008.0
20260504012316 82 288 2.0 5.0 0.00 0.00 0.00 99 1008.0
20260504012116 82 314 3.0 6.0 0.00 0.00 0.00 99 1008.0
20260504011846 82 355 0.0 2.0 0.00 0.00 0.00 99 1008.1
20260504011646 81 355 0.0 1.0 0.00 0.00 0.00 99 1008.1
20260504011446 81 355 2.0 3.0 0.00 0.00 0.00 99 1008.1
20260504011246 81 293 1.0 3.0 0.00 0.00 0.00 99 1008.1
20260504011016 81 341 3.0 5.0 0.00 0.00 0.00 99 1008.2
20260504010816 81 342 1.0 3.0 0.00 0.00 0.00 99 1008.2
20260504010546 80 355 1.0 3.0 0.00 0.00 0.00 99 1008.3
20260504010346 80 5 2.0 6.0 0.00 0.00 0.00 99 1008.3
20260504010146 80 347 3.0 6.0 0.00 0.00 0.00 99 1008.3
20260504005946 80 319 3.0 3.0 0.00 0.00 0.00 99 1008.3
20260504005716 80 317 2.0 6.0 0.00 0.00 0.00 99 1008.4
20260504005446 80 5 3.0 7.0 0.00 0.00 0.00 99 1008.4
20260504005246 80 341 2.0 3.0 0.00 0.00 0.00 99 1008.4
20260504005046 80 336 3.0 7.0 0.00 0.00 0.00 99 1008.4
20260504004846 80 12 2.0 3.0 0.00 0.00 0.00 99 1008.5
20260504004646 80 4 3.0 3.0 0.00 0.00 0.00 99 1008.5
20260504004446 80 16 2.0 5.0 0.00 0.00 0.00 99 1008.5
20260504004246 80 5 2.0 3.0 0.00 0.00 0.00 99 1008.6
20260504004046 79 3 5.0 6.0 0.00 0.00 0.00 99 1008.6
20260504003846 79 11 3.0 3.0 0.00 0.00 0.00 99 1008.6
20260504003616 80 0 5.0 6.0 0.00 0.00 0.00 99 1008.6
20260504003416 80 5 3.0 3.0 0.00 0.00 0.00 99 1008.6
20260504003146 79 2 3.0 5.0 0.00 0.00 0.00 99 1008.7
20260504002946 79 12 3.0 5.0 0.00 0.00 0.00 99 1008.7
20260504002746 80 2 5.0 8.0 0.00 0.00 0.00 99 1008.7
20260504002546 80 2 3.0 3.0 0.00 0.00 0.00 99 1008.7
20260504002346 80 9 3.0 5.0 0.00 0.00 0.00 99 1008.7
20260504002146 80 5 5.0 5.0 0.00 0.00 0.00 99 1008.8
20260504001916 80 5 2.0 6.0 0.00 0.00 0.00 99 1008.7
20260504001716 79 358 3.0 6.0 0.00 0.00 0.00 99 1008.7
20260504001516 79 7 3.0 3.0 0.00 0.00 0.00 99 1008.8
20260504001246 79 2 3.0 3.0 0.00 0.00 0.00 99 1008.8
20260504001046 79 10 3.0 5.0 0.00 0.00 0.00 99 1008.8
20260504000846 79 10 3.0 5.0 0.00 0.00 0.00 99 1008.8
20260504000646 79 20 3.0 3.0 0.00 0.00 0.00 99 1008.9
20260504000446 79 3 3.0 5.0 0.00 0.00 0.00 99 1008.9
20260504000246 79 20 2.0 3.0 0.00 0.00 0.00 99 1008.9
20260504000046 79 0 3.0 5.0 0.00 0.00 0.00 99 1008.9
20260503235846 79 22 2.0 3.0 0.00 0.00 0.00 99 1008.9
20260503235646 79 17 2.0 3.0 0.00 0.00 0.00 99 1009.0
20260503235446 79 5 2.0 3.0 0.00 0.00 0.00 99 1009.0
20260503235216 79 343 2.0 3.0 0.00 0.00 0.00 99 1009.1
20260503235016 78 353 2.0 3.0 0.00 0.00 0.00 99 1009.1
20260503234816 79 6 3.0 5.0 0.00 0.00 0.00 99 1009.1
20260503234546 78 353 3.0 3.0 0.00 0.00 0.00 99 1009.2
20260503234346 78 17 3.0 5.0 0.00 0.00 0.00 99 1009.1
20260503234146 78 4 3.0 5.0 0.00 0.00 0.00 99 1009.1
20260503233946 78 6 5.0 5.0 0.00 0.00 0.00 99 1009.2
20260503233746 78 6 3.0 3.0 0.00 0.00 0.00 99 1009.1
20260503233546 78 9 3.0 5.0 0.00 0.00 0.00 99 1009.2
20260503233346 78 8 2.0 5.0 0.00 0.00 0.00 99 1009.2
20260503233145 78 8 3.0 5.0 0.00 0.00 0.00 99 1009.2
20260503232945 78 4 3.0 5.0 0.00 0.00 0.00 99 1009.2
20260503232746 79 12 3.0 3.0 0.00 0.00 0.00 99 1009.3
20260503232545 79 12 3.0 5.0 0.00 0.00 0.00 99 1009.3
20260503232315 79 14 2.0 5.0 0.00 0.00 0.00 99 1009.3
20260503232115 79 14 3.0 3.0 0.00 0.00 0.00 99 1009.3
20260503231915 79 4 3.0 5.0 0.00 0.00 0.00 99 1009.4
20260503231715 79 10 3.0 3.0 0.00 0.00 0.00 99 1009.4
20260503231445 79 3 3.0 3.0 0.00 0.00 0.00 99 1009.4
20260503231245 79 15 2.0 3.0 0.00 0.00 0.00 99 1009.5
20260503231015 79 358 3.0 5.0 0.00 0.00 0.00 99 1009.5
20260503230815 79 352 3.0 3.0 0.00 0.00 0.00 99 1009.5
20260503230545 79 10 3.0 5.0 0.00 0.00 0.00 99 1009.6
20260503230345 79 4 5.0 6.0 0.00 0.00 0.00 99 1009.6
20260503230115 79 20 3.0 5.0 0.00 0.00 0.00 99 1009.6
20260503225915 79 358 3.0 5.0 0.00 0.00 0.00 99 1009.6
20260503225715 78 6 3.0 5.0 0.00 0.00 0.00 99 1009.7
20260503225445 78 4 3.0 6.0 0.00 0.00 0.00 99 1009.7
20260503225245 78 10 3.0 3.0 0.00 0.00 0.00 99 1009.7
20260503225045 78 4 2.0 5.0 0.00 0.00 0.00 99 1009.7
20260503224845 78 19 3.0 3.0 0.00 0.00 0.00 99 1009.7
20260503224645 78 358 3.0 5.0 0.00 0.00 0.00 99 1009.8
20260503224415 78 356 3.0 5.0 0.00 0.00 0.00 99 1009.8
20260503224145 78 2 3.0 6.0 0.00 0.00 0.00 99 1009.8
20260503223945 78 16 5.0 6.0 0.00 0.00 0.00 99 1009.9
20260503223715 78 11 3.0 5.0 0.00 0.00 0.00 99 1009.9
20260503223515 78 18 5.0 5.0 0.00 0.00 0.00 99 1009.9
20260503223245 78 9 3.0 5.0 0.00 0.00 0.00 99 1009.9
20260503223045 78 7 5.0 5.0 0.00 0.00 0.00 99 1010.0
20260503222815 78 6 5.0 6.0 0.00 0.00 0.00 99 1010.0
20260503222545 78 7 2.0 5.0 0.00 0.00 0.00 99 1010.1
20260503222315 77 357 3.0 5.0 0.00 0.00 0.00 99 1010.1
20260503222046 77 357 3.0 6.0 0.00 0.00 0.00 99 1010.3
20260503221815 77 340 5.0 5.0 0.00 0.00 0.00 99 1010.3
20260503221545 77 0 5.0 6.0 0.00 0.00 0.00 99 1010.4
20260503221315 78 359 6.0 6.0 0.00 0.00 0.00 99 1010.4
20260503221115 78 21 5.0 5.0 0.00 0.00 0.00 99 1010.4
20260503220915 78 359 2.0 6.0 0.00 0.00 0.00 99 1010.4
20260503220715 78 8 1.0 3.0 0.00 0.00 0.00 99 1010.5
20260503220515 78 7 3.0 6.0 0.00 0.00 0.00 99 1010.5
20260503220315 77 341 3.0 6.0 0.00 0.00 0.00 99 1010.5
20260503220115 77 8 3.0 6.0 0.00 0.00 0.00 99 1010.5
20260503215915 77 329 5.0 3.0 0.00 0.00 0.00 99 1010.6
20260503215645 77 350 5.0 6.0 0.00 0.00 0.00 99 1010.5
20260503215445 77 348 5.0 8.0 0.00 0.00 0.00 99 1010.6
20260503215245 77 357 5.0 7.0 0.00 0.00 0.00 99 1010.6
20260503215045 77 355 5.0 6.0 0.00 0.00 0.00 99 1010.6
20260503214815 77 13 5.0 5.0 0.00 0.00 0.00 99 1010.6
20260503214615 77 352 3.0 5.0 0.00 0.00 0.00 99 1010.6
20260503214415 77 25 3.0 5.0 0.00 0.00 0.00 99 1010.6
20260503214145 76 12 3.0 6.0 0.00 0.00 0.00 99 1010.7
20260503213915 76 3 5.0 7.0 0.00 0.00 0.00 99 1010.7
20260503213715 76 18 5.0 5.0 0.00 0.00 0.00 99 1010.7
20260503213515 76 2 3.0 6.0 0.00 0.00 0.00 99 1010.7
20260503213315 76 0 5.0 6.0 0.00 0.00 0.00 99 1010.7
20260503213115 76 354 5.0 6.0 0.00 0.00 0.00 99 1010.7
20260503212915 76 1 5.0 5.0 0.00 0.00 0.00 99 1010.7
20260503212715 76 8 2.0 5.0 0.00 0.00 0.00 99 1010.8
20260503212515 76 356 3.0 6.0 0.00 0.00 0.00 99 1010.7
20260503212245 76 333 3.0 3.0 0.00 0.00 0.00 99 1010.8
20260503212015 76 341 3.0 5.0 0.00 0.00 0.00 99 1010.8
20260503211745 76 10 3.0 5.0 0.00 0.00 0.00 99 1010.8
20260503211545 75 359 2.0 3.0 0.00 0.00 0.00 99 1010.8
20260503211345 75 5 3.0 5.0 0.00 0.00 0.00 99 1010.8
20260503211115 75 16 3.0 6.0 0.00 0.00 0.00 99 1010.9
20260503210915 75 23 2.0 3.0 0.00 0.00 0.00 99 1010.9
20260503210645 75 3 3.0 3.0 0.00 0.00 0.00 99 1010.9
20260503210445 75 338 3.0 6.0 0.00 0.00 0.00 99 1011.0
20260503210245 75 14 5.0 6.0 0.00 0.00 0.00 99 1011.0
20260503210015 75 356 3.0 5.0 0.00 0.00 0.00 99 1011.0
20260503205745 75 346 3.0 5.0 0.00 0.00 0.00 99 1011.1
20260503205545 75 350 3.0 6.0 0.00 0.00 0.00 99 1011.1
20260503205315 75 352 3.0 6.0 0.00 0.00 0.00 99 1011.1
20260503205115 75 2 5.0 6.0 0.00 0.00 0.00 99 1011.1
20260503204845 75 3 5.0 7.0 0.00 0.00 0.00 99 1011.2
20260503204615 75 16 3.0 3.0 0.00 0.00 0.00 99 1011.2
20260503204345 75 18 5.0 5.0 0.00 0.00 0.00 99 1011.3
20260503204145 75 21 5.0 7.0 0.00 0.00 0.00 99 1011.3
20260503203945 75 15 6.0 7.0 0.00 0.00 0.00 99 1011.3
20260503203745 75 1 6.0 7.0 0.00 0.00 0.00 99 1011.3
20260503203515 75 4 5.0 9.0 0.00 0.00 0.00 99 1011.3
20260503203315 75 357 6.0 8.0 0.00 0.00 0.00 99 1011.3
20260503203115 75 353 5.0 6.0 0.00 0.00 0.00 99 1011.4
20260503202845 75 9 6.0 7.0 0.00 0.00 0.00 99 1011.4
20260503202645 75 5 5.0 8.0 0.00 0.00 0.00 99 1011.5
20260503202445 75 5 5.0 7.0 0.00 0.00 0.00 99 1011.5
20260503202245 75 7 5.0 7.0 0.00 0.00 0.00 99 1011.5
20260503202015 74 358 5.0 6.0 0.00 0.00 0.00 99 1011.6
20260503201815 74 354 6.0 8.0 0.00 0.00 0.00 99 1011.6
20260503201615 74 14 5.0 7.0 0.00 0.00 0.00 99 1011.6
20260503201415 74 2 5.0 7.0 0.00 0.00 0.00 99 1011.7
20260503201215 74 0 7.0 9.0 0.00 0.00 0.00 99 1011.6
20260503201015 74 3 5.0 7.0 0.00 0.00 0.00 99 1011.7
20260503200815 74 11 5.0 8.0 0.00 0.00 0.00 99 1011.7
20260503200545 75 16 5.0 8.0 0.00 0.00 0.00 99 1011.7
20260503200345 75 12 5.0 6.0 0.00 0.00 0.00 99 1011.7
20260503200145 75 12 5.0 7.0 0.00 0.00 0.00 99 1011.8
20260503195945 75 5 3.0 7.0 0.00 0.00 0.00 99 1011.8
20260503195745 75 8 3.0 5.0 0.00 0.00 0.00 99 1011.9
20260503195545 76 6 5.0 7.0 0.00 0.00 0.00 99 1011.9
20260503195315 76 32 2.0 5.0 0.00 0.00 0.00 99 1011.8
20260503195115 76 14 1.0 3.0 0.00 0.00 0.00 99 1011.9
20260503194915 75 3 2.0 2.0 0.00 0.00 0.00 99 1011.9
20260503194715 75 0 2.0 2.0 0.00 0.00 0.00 99 1011.9
20260503194515 75 308 1.0 3.0 0.00 0.00 0.00 99 1012.0
20260503194245 74 323 2.0 5.0 0.00 0.00 0.00 99 1012.0
20260503194045 74 332 1.0 3.0 0.00 0.00 0.00 99 1012.0
20260503193845 73 349 5.0 6.0 0.00 0.00 0.00 99 1012.0
20260503193615 73 343 1.0 3.0 0.00 0.00 0.00 99 1012.0
20260503193415 73 345 6.0 9.0 0.00 0.00 0.00 99 1012.1
20260503193215 72 322 5.0 5.0 0.00 0.00 0.00 99 1012.1
20260503193015 72 19 5.0 9.0 0.00 0.00 0.00 99 1012.1
20260503192815 72 6 3.0 7.0 0.00 0.00 0.00 99 1012.1
20260503192615 72 352 7.0 9.0 0.00 0.00 0.00 99 1012.1
20260503192415 72 9 5.0 6.0 0.00 0.00 0.00 99 1012.2
20260503192145 72 355 6.0 7.0 0.00 0.00 0.00 99 1012.2
20260503191945 72 0 6.0 8.0 0.00 0.00 0.00 99 1012.1
20260503191715 71 7 5.0 6.0 0.00 0.00 0.00 99 1012.2
20260503191515 71 0 5.0 8.0 0.00 0.00 0.00 99 1012.2
20260503191315 71 358 6.0 12.0 0.00 0.00 0.00 99 1012.2
20260503191115 71 359 7.0 8.0 0.00 0.00 0.00 99 1012.2
20260503190915 71 0 5.0 6.0 0.00 0.00 0.00 99 1012.3
20260503190715 71 12 5.0 8.0 0.00 0.00 0.00 99 1012.2
20260503190515 72 4 6.0 9.0 0.00 0.00 0.00 99 1012.3
20260503190315 72 9 6.0 9.0 0.00 0.00 0.00 99 1012.3
20260503190045 72 4 5.0 6.0 0.00 0.00 0.00 99 1012.3
20260503185845 72 1 6.0 8.0 0.00 0.00 0.00 99 1012.3